{"data":{"norad_id":65861,"intl_designator":"2025-223H","name":"STARLINK-35258","alt_names":[],"object_type":"PAYLOAD","status":"ACTIVE","operator":null,"country":"US","launch_date":"2025-10-03","launch_site_code":"AFWTR","launch_vehicle":null,"mission":null,"orbit_class":"UNKNOWN","rcs_meters":null,"size_class":null,"mass_kg":null,"dimensions":null,"purposes":["comms"],"wikipedia_slug":null,"has_3d_model":false,"image_url":null,"decayed_at":null,"tle_current":{"epoch":"2026-09-20T06:54:28.829088Z","epoch_age_seconds":124559,"freshness":"FRESH","line1":"1 65861U 25223H   26263.28783367  .00015983  00000+0  48341-3 0  9991","line2":"2 65861  53.1567 106.4473 0000845 112.0624 248.0469 15.34384536 54052","mean_motion":15.34384536,"eccentricity":8.45e-5,"inclination_deg":53.1567,"raan_deg":106.4473,"arg_perigee_deg":112.0624,"mean_anomaly_deg":248.0469,"bstar":0.00048341,"rev_number":5405,"period_min":93.848703907949,"perigee_km":462.17114797587,"apogee_km":463.32725774416,"semimajor_km":6840.88620286,"source":"CELESTRAK","updated_at":"2026-09-21T09:00:35.726575Z"}}}